www.pogodaiklimat.ru

Погода и климат >> Архив погоды >> Россия >> Приморский край >> Сосуново


ПОГОДА в Сосуново

  • Прогноз погоды в Сосуново
  • Монитор погоды в Сосуново
  • Климат города

АРХИВ ПОГОДЫ в Сосуново

Время (UTC), дата Ветер
(напр.,м/с)
 
Видим.   Явления Облачность Т
(С)
Тd
(С)
f
(%)
Тe
(С)
Тes
(С)
Комфортность P
(гПа)
Po
(гПа)
Тmin
(С)
Tmax
(С)
R
(мм)
R24
(мм)
S
(см)
00 10.08 С 7-10
{11}
4000 м морось 10/10 300 м
[St]
+17.3 +15.7 90 +16 +16 1010.6 1010.2
03 10.08 С 8-12
{13}
10 км слабая морось 10/10 300 м
[St]
+17.1 +15.5 90 +16 +16 1010.9 1010.5
06 10.08 С 9-13
{13}
10 км {морось} 9/9 300 м
[Sc]
+17.8 +15.3 85 +17 +17 1011.2 1010.8
09 10.08 С 7-12
{13}
4000 м слабая морось 10/10 300 м
[St]
+16.9 +14.9 88 +16 +16 1011.8 1011.4 +18.2 0.8
12 10.08 С 6-10
{12}
10 км {морось} 10/10 200 м
[St]
+17.4 +15.1 86 +17 +17 1012.2 1011.8
15 10.08 С 7-11
{12}
4000 м слабая морось 10/10 300 м
[St]
+17.3 +15.3 88 +16 +16 1011.8 1011.4
18 10.08 С 9-12
{13}
4000 м слабая морось 10/10 200 м
[St]
+16.9 +15.6 92 +15 +15 1011.8 1011.4
21 10.08 С 8-13
{14}
4000 м дождь {морось} 10/10 300 м
[Frnb Ns]
+16.4 +15.0 91 +15 +15 1012.8 1012.4 +16.4 3
00 11.08 С 9-14
{14}
2000 м дождь {морось} 10/10 200 м
[Frnb Ns]
+16.5 +15.2 92 +15 +15 1012.8 1012.4 +16.3
03 11.08 С 9-12
{15}
2000 м дождь 10/10 200 м
[Frnb Ns]
+16.7 +15.6 93 +15 +15 1013.3 1012.9
06 11.08 С 9-14
{14}
2000 м дождь 10/10 100 м
[Frnb Ns]
+16.3 +15.2 93 +15 +15 1013.3 1012.9
09 11.08 С 8-12
{14}
2000 м слабый дождь 10/10 100 м
[Frnb Ns]
+15.9 +14.5 91 +14 +14 1013.8 1013.5 +16.8 18
12 11.08 С 8-11
{14}
10 км слабый дождь 10/10 200 м
[Frnb Ns]
+16.2 +15.0 93 +15 +15 1014.8 1014.5
15 11.08 СВ 9-12
{14}
10 км слабый дождь 10/10 200 м
[Frnb Ns]
+16.0 +15.0 94 +14 +14 1015.3 1014.9
18 11.08 С 9-11
{13}
10 км слабый дождь 10/10 200 м
[Frnb Ns]
+15.7 +14.6 93 +14 +14 1015.4 1015.0
21 11.08 СВ 10-13
{14}
2000 м дождь 10/10 100 м
[Frnb Ns]
+15.2 +14.0 93 +13 +13 1016.0 1015.6 +15.2 17
00 12.08 С 6-12
{13}
2000 м дождь 10/10 100 м
[Frnb Ns]
+14.9 +13.5 91 +13 +13 1016.8 1016.5 +14.8
03 12.08 С 6
{12}
2000 м дождь 10/10 100 м
[Frnb Ns]
+14.9 +13.6 92 +13 +13 1016.8 1016.4
06 12.08 С 6-10
{10}
2000 м дождь 10/10 100 м
[Frnb Ns]
+14.8 +13.4 91 +13 +13 1016.6 1016.2
09 12.08 С 5
{12}
2000 м дождь 10/10 100 м
[Frnb Ns]
+14.2 +13.0 92 +12 +12 1016.8 1016.5 +15.4 13
12 12.08 С 3
{11}
10 км слабый дождь 10/10 200 м
[Frnb Ns]
+13.8 +12.4 91 +13 +13 1017.4 1017.0
15 12.08 С 2 10 км слабый дождь 10/10 100 м
[Frnb Ns]
+13.9 +12.5 91 +13 +13 1016.4 1016.0
18 12.08 С 2 10 км слабый дождь 10/10 100 м
[Frnb Ns]
+13.6 +12.3 92 +13 +13 1016.3 1015.9
21 12.08 СЗ 2 10 км слабый дождь 10/10 200 м
[Frnb Ns]
+13.9 +12.1 89 +13 +13 1016.3 1015.9 +13.5 6
00 13.08 С 3 20 км {дождь} 10/10 600 м
[Sc]
+15.1 +12.3 83 +14 +14 1016.3 1015.9
03 13.08 С 6 20 км 10/10 600 м
[Sc]
+16.0 +12.6 80 +15 +15 1015.9 1015.5
06 13.08 С 6 20 км 8/4 1000 м
[Sc Ci]
+16.5 +13.2 81 +15 +17 1015.2 1014.8
09 13.08 С 4 20 км 10/4 600 м
[Sc As op]
+15.3 +13.2 87 +14 +14 1015.3 1014.9 +17.0 0.5
12 13.08 З 1 20 км 6/0
[As op Cs]
+13.6 +12.2 91 +14 +14 1015.4 1015.0
15 13.08 СЗ 2 20 км 10/0
[Cs]
+12.9 +11.7 92 +12 +12 1014.8 1014.4
18 13.08 З 1 20 км 8/0
[As op]
+13.1 +11.9 92 +13 +13 1014.1 1013.7
21 13.08 З 1 20 км 8/3 600 м
[Sc Ac trans]
+12.7 +11.6 93 +13 +13 1014.1 1013.7 +12.6
00 14.08 СВ 4 20 км 3/3 600 м
[Cu med, cong]
+16.5 +12.9 79 +16 +21 1013.8 1013.4
03 14.08 СВ 3 20 км ясно +17.5 +13.5 77 +18 +31 опасность
простуды
1013.6 1013.2
06 14.08 ЮВ 2 20 км ясно +18.4 +13.4 73 +19 +28 1013.0 1012.6
09 14.08 Ю 2 20 км ясно +17.1 +13.2 78 +17 +18 1012.5 1012.1 +18.6
12 14.08 З 2 20 км ясно +13.0 +11.7 92 +12 +12 1013.1 1012.7
15 14.08 ЮЗ 3 20 км ясно +11.6 +10.7 94 +10 +10 1013.2 1012.8
18 14.08 З 2 20 км ясно +12.5 +11.6 94 +11 +11 1013.3 1012.9
21 14.08 З 1 20 км 4/4 600 м
[Sc]
+13.9 +12.9 94 +14 +15 1013.5 1013.1 +11.3
00 15.08 СВ 3 50 км 3/3 1000 м
[Cu hum]
+17.6 +13.8 78 +18 +23 1014.0 1013.6
03 15.08 СВ 2 50 км 3/3 1000 м
[Cu hum]
+18.9 +14.5 76 +21 +31 комфорт 1013.5 1013.1
06 15.08 В 1 50 км ясно +18.7 +13.9 74 +21 +30 комфорт 1012.9 1012.6
09 15.08 ЮВ 1 50 км ясно +17.8 +13.9 78 +19 +19 1013.2 1012.8 +19.1
12 15.08 З 2 50 км ясно +13.9 +12.7 92 +13 +13 1014.4 1014.0
15 15.08 З 1 50 км ясно +15.0 +13.8 93 +15 +15 1014.2 1013.8
18 15.08 СЗ 2 50 км ясно +15.3 +13.7 90 +15 +15 1014.4 1014.0
21 15.08 СЗ 2 50 км 10/10 600 м
[Sc]
+15.8 +13.1 84 +16 +16 1014.9 1014.5 +13.9
00 16.08 СВ 5 50 км 10/3 600 м
[Sc As op]
+17.5 +13.1 75 +17 +18 1015.5 1015.1
03 16.08 СВ 5 20 км 10/10 600 м
[Sc]
+17.7 +14.3 80 +17 +17 1015.1 1014.7
06 16.08 СВ 4 20 км 10/10 600 м
[Sc]
+18.0 +15.0 83 +18 +18 1014.8 1014.4
09 16.08 СЗ 1 20 км 4/4 600 м
[Sc]
+16.5 +14.5 88 +17 +18 1015.0 1014.7 +18.6
12 16.08 З 2 20 км 3/0
[Ci sp]
+13.9 +12.7 92 +13 +13 1015.9 1015.5
15 16.08 ЮЗ 3 20 км 10/0
[As op]
+13.8 +12.6 92 +13 +13 1015.9 1015.5
18 16.08 ЮЗ 3 20 км 10/0
[As op]
+14.1 +12.7 91 +13 +13 1015.5 1015.1
21 16.08 ЮЗ 3 20 км 8/8 600 м
[Sc]
+13.5 +12.2 92 +13.1

 

Местоположение метеостанции Сосуново (Приморский край, Россия): широта 46.55 долгота 138.30 высота над уровнем моря 4 м.

В архиве по умолчанию представлена погода в Сосуново за последнюю неделю. Архивные данные за месяц целиком и за предыдущие месяцы, начиная с января 2011 года, Вы можете получить, выбрав интересующий диапазон дат из раскрывающегося списка и нажав кнопку "Ввод!".

Внимание! Время в таблицах - всемирное. Для получения местного времени необходимо прибавить поправку, которая в Сосуново равна 10 ч.

Смотрите также архив погоды в соседних городах и на ближайших метеорологических станциях:

Погода в Охотничем (Приморский край, Россия) (107 км)
Погода в Агзу (Приморский край, Россия) (117 км)
Погода в Сукпае (Хабаровский край, Россия) (142 км)
Погода в Малой Кеме (Приморский край, Россия) (158 км)
Погода в Гвасюгах (Хабаровский край, Россия) (208 км)
Погода в Тернее (Приморский край, Россия) (217 км)
Погода на Остров Монерон (Сахалинская область, Россия) (225 км)
Погода в Красном Яре (Приморский край, Россия) (230 км)
Погода в Глубинном (Приморский край, Россия) (237 км)
Погода в Бичевой (Хабаровский край, Россия) (245 км)

Пояснения к столбцам:

Ветер - указаны скорость ветра в м/с - средняя за 10 мин, порывы в срок и между сроками (в фигурных скобках) и направление, откуда дует ветер: С - северный, СВ - северо-восточный, В - восточный, ЮВ - юго-восточный, Ю - южный, ЮЗ - юго-западный, З - западный, СЗ - северо-западный.
Видимость - горизонтальная дальность видимости в метрах или километрах. При видимости от 1 до 10 км при отсутствии осадков обычно наблюдается дымка, при ухудшении видимости до 1 км и менее - туман. В сухую погоду видимость может ухудшаться дымом, пылью или мглою.
Явления - указаны атмосферные явления, наблюдавшиеся в срок или в последний час перед сроком; фигурными скобками обозначены явления, наблюдавшиеся между сроками (за 1-3 часа до срока); квадратными скобками обозначены град или гололедные отложения с указанием их диаметра в мм.
Облачность - указаны через наклонную черту общая и нижняя облачность в баллах и высота нижней границы облаков в метрах; квадратными скобками обозначены формы облаков: Ci - перистые, Cs - перисто-слоистые, Cc - перисто-кучевые, Ac - высококучевые, As - высокослоистые, Sc - слоисто-кучевые, Ns - слоисто-дождевые, Cu - кучевые, Cb - кучево-дождевые. Подробнее классификацию облаков см. в Атласе облаков (PDF).
T - Температура воздуха - температура, измеренная на высоте 2 м над землей.
Td - Температура точки росы - температура, при понижении до которой содержащийся в воздухе водяной пар достигнет насыщения.
f - Относительная влажность воздуха - влажноcть воздуха, измеренная на высоте 2 м над землей.
Te - Эффективная температура - температура, которую ощущает одетый по сезону человек в тени. Характеристика душности погоды. При расчете учитывается влияние влажности воздуха и скорости ветра на теплоощущения человека.
Tes - Эффективная температура на солнце - температура, которую ощущает человек, с поправкой на солнечный нагрев. Характеристика знойности погоды. Зависит от высоты солнца над горизонтом, облачности и скорости ветра. Ночью, в пасмурную погоду, а также при ветре 12 м/с и более поправка равна нулю.
P - Атмосферное давление - приведенное к уровню моря атмосферное давление.
Po - Атмосферное давление - измеренное на уровне метеостанции атмосферное давление.
Tmin - Минимальная температура - минимум температуры воздуха на высоте 2 м над землей.
Tmax - Максимальная температура - максимум температуры воздуха на высоте 2 м над землей.
R - Количество осадков - Количество выпавших осадков за период времени, мм. При наведении курсора мыши на число - период времени, за который выпало указанное количество осадков.
R24 - Количество осадков - Количество выпавших осадков за 24 часа, мм.
S - Снежный покров - Высота снежного покрова, см. При наведении курсора мыши на число - состояние снежного покрова и степень покрытия местности в баллах.